Home > Weather > Wainwright > Past weeks

Flag for USA Weather for the Past 2 Weeks in Wainwright, Alaska, USA

Now
23 °F

Overcast.


Feels Like: 11 °F
Forecast: 17 / 23 °F
Wind: 13 mph from Northeast

Location: Wainwright Distant Early Warning

Current Time: May 5, 2016 at 12:49:38 AM

Latest Report: May 4, 2016 at 11:53 PM


Visibility: 10 mi

Pressure: 29.94 "Hg

Humidity: 85%

Dew Point: 19 °F

Location of WainwrightLocation

Historic Weather in Wainwright — Graph

°F

Wainwright Temperature Yesterday

Maximum temperature yesterday: 29 °F (at 1:53 PM)
Minimum temperature yesterday: 23 °F (at 10:53 PM)
Average temperature yesterday: 26 °F

High & Low Weather Summary for the Past Weeks

 TemperatureHumidityPressure
High31 °F (Apr 30, 3:53 PM)96% (Apr 27, 8:53 AM)30.31 "Hg (Apr 27, 8:53 AM)
Low11 °F (Apr 21, 8:53 AM)72% (Apr 29, 3:53 PM)29.82 "Hg (Apr 30, 9:53 PM)
Average24 °F86%29.98 "Hg
* Reported Apr 19 10:53 PM — May 4 10:53 PM, Wainwright, Weather by CustomWeather, © 2016

Note: Actual official high and low records may vary slightly from our data, if they occured in-between our weather recording intervals... More about our weather records

Advertising

Wainwright Weather History for the Previous 24 Hours

Scroll right to see more
 ConditionsComfort  
Time TempWeatherWind HumidityBarometerVisibility
10:53 PM
Wed, May 4
23 °FMostly cloudy.12 mph85%29.93 "Hg10 mi
9:53 PM24 °FOvercast.14 mph84%29.93 "Hg10 mi
8:53 PM25 °FOvercast.14 mph81%29.93 "Hg10 mi
7:53 PM25 °FOvercast.15 mph85%29.93 "Hg10 mi
6:53 PM26 °FMore clouds than sun.15 mph81%29.93 "Hg10 mi
5:53 PM27 °FMore clouds than sun.15 mph85%29.93 "Hg10 mi
4:53 PM28 °FLow clouds.15 mph81%29.93 "Hg10 mi
3:53 PM28 °FLow clouds.15 mph85%29.93 "Hg10 mi
2:53 PM29 °FOvercast.13 mph82%29.92 "Hg10 mi
2:04 PM29 °FOvercast.15 mph85%29.92 "Hg10 mi
1:53 PM29 °FLow clouds.14 mph85%29.92 "Hg10 mi
12:53 PM28 °FMore clouds than sun.14 mph85%29.93 "Hg10 mi
11:53 AM28 °FMore clouds than sun.13 mph85%29.91 "Hg10 mi
10:53 AM27 °FLow clouds.14 mph89%29.91 "Hg10 mi
10:02 AM26 °FMore clouds than sun.14 mph92%29.91 "Hg9 mi
9:53 AM26 °FOvercast.13 mph92%29.91 "Hg10 mi
8:53 AM25 °FMore clouds than sun.13 mph92%29.91 "Hg10 mi
7:53 AM25 °FOvercast.10 mph88%29.91 "Hg10 mi
6:53 AM25 °FOvercast.12 mph88%29.91 "Hg10 mi
5:53 AM24 °FOvercast.10 mph91%29.91 "Hg10 mi
4:53 AM25 °FMostly cloudy.14 mph88%29.91 "Hg10 mi
3:53 AM25 °FLow clouds.15 mph92%29.91 "Hg7 mi
2:53 AM25 °FLow clouds.14 mph92%29.91 "Hg7 mi
1:53 AM26 °FLow clouds.13 mph88%29.91 "Hg10 mi
12:53 AM26 °FLow clouds.12 mph88%29.90 "Hg10 mi
Weather by CustomWeather, © 2016

See weather overviewHow to use our weather pages